Regional Weather Roundup
Issued by NWS

Home | Current Version | Previous Version | Graphics & Text | Print | Product List | Glossary On
Versions: 1 2 3 4 5 6 7 8 9 10 11 12 13 14 15 16 17 18 19 20 21 22 23 24 25 26 27 28 29 30 31 32 33 34 35 36 37 38 39 40 41 42 43 44 45 46 47 48 49 50
633
ASUS44 KLIX 280101
RWRLA
LOUISIANA WEATHER ROUNDUP
NATIONAL WEATHER SERVICE NEW ORLEANS LA
700 PM CST FRI FEB 27 2015

NOTE: "FAIR" INDICATES FEW OR NO CLOUDS BELOW 12,000 FEET WITH NO
      SIGNIFICANT WEATHER AND/OR OBSTRUCTIONS TO VISIBILITY.
      SKY/WX - SKY CONDITION AND SIGNIFICANT WEATHER.
      TMP - AIR TEMPERATURE.    DP   - DEWPOINT TEMPERATURE.
      RH  - RELATIVE HUMIDITY.  PRES - PRESSURE.
      HX  - HEAT INDEX.         WCI  - WIND CHILL INDEX.

*  THESE STATIONS ARE NOT NWS OR FAA STATIONS AND ARE NOT UNDER
   NWS QUALITY CONTROL.

LAZ040-048-061>063-065-066-069-280200-
SOUTHEAST LOUISIANA

CITY           SKY/WX    TMP DP  RH WIND       PRES   REMARKS
N.O. AUDUBON     N/A     50  38  63 MISG        N/A
N.O. INTL ARPT PTCLDY    48  33  56 N15       30.34R
N.O. LAKEFRONT CLEAR     50  35  56 N18       30.34R
SLIDELL        CLEAR     44  32  62 N7        30.34R
BATON ROUGE    PTCLDY    47  31  53 NE7       30.34R
BOOTHVILLE     MOCLDY    50  40  68 NE7       30.32R
BELLE CHASSE   PTCLDY    46  33  60 NE3       30.33R
BOGALUSA*        N/A     41  34  77 N5        30.38S
GALLIANO*      PTCLDY    49  36  59 MISG      30.33R
NEW ROADS*     FAIR      43  31  61 N10       30.36R
GONZALES*      NOT AVBL
HAMMOND*       NOT AVBL
HOUMA*         CLEAR     45  34  65 N6        30.33R
PORT FOURCHON* NOT AVBL

$$

LAZ041-044-053-054-280200-
SOUTHWEST LOUISIANA

CITY           SKY/WX    TMP DP  RH WIND       PRES   REMARKS
LAKE CHARLES   CLEAR     45  34  65 E8        30.36R
LAFAYETTE      CLEAR     46  33  60 N9        30.35R
PATTERSON      CLEAR     46  34  61 NE6       30.34R
SALT POINT       N/A     46  38  73 CALM      30.32R
NEW IBERIA     CLEAR     45  34  65 N7        30.34R
CHENAULT AIRPK NOT AVBL

$$

LAZ027-028-280200-
CENTRAL LOUISIANA

CITY           SKY/WX    TMP DP  RH WIND       PRES   REMARKS
FORT POLK      PTCLDY    40  27  59 NE7       30.38R WCI  35
ALEXANDRIA INT CLOUDY    37  25  61 NE12      30.41R WCI  29
ALEXANDRIA     CLOUDY    38  24  57 NE6       30.41R WCI  33

$$

LAZ001-002-280200-
NORTHWEST LOUISIANA

CITY           SKY/WX    TMP DP  RH WIND       PRES   REMARKS
SHREVEPORT     CLOUDY    33  20  58 E9        30.44F WCI  25
BARKSDALE AFB  CLOUDY    32  19  58 NE6       30.45F WCI  27
DTN SHREVEPORT CLOUDY    32  18  56 NE7       30.46S WCI  26

$$

LAZ014-016-280200-
NORTHEAST LOUISIANA

CITY           SKY/WX    TMP DP  RH WIND       PRES   REMARKS
MONROE         CLOUDY    33  25  72 NE17      30.49R WCI  22
TALLULAH       CLOUDY    35  27  72 N21G26    30.47R WCI  24

$$




USA.gov is the U.S. government's official web portal to all federal, state and local government web resources and services.